Location: Caltech
(34.1382°N, 118.1253°W)
Time: 09:50:46
(UTC-07:00)

Oscar 10/S400 - Visible Passes

Search period start: 27 June 2016 00:00
Search period end: 07 July 2016 00:00
Orbit: 4040 x 35407 km, 26.7° (Epoch: 21 June)

Date Brightness Start Highest point End Pass type
(mag) Time Alt. Az. Time Alt. Az. Time Alt. Az.
27 Jun ? 12:59:27 10° SW 22:44:33 55° SW 23:02:12 32° SSE visible
28 Jun ? 12:08:44 10° SW 21:57:50 62° SW 22:21:20 26° SE visible
29 Jun ? 11:20:19 10° SSW 21:09:38 69° SSW 21:40:28 18° SE visible
30 Jun ? 10:33:36 10° SSW 20:19:11 74° SSW 20:59:31 10° ESE visible
